Location: Bad Rothenbrunn
(47.2167°N, 11.2167°E)
Time: 20:22:07
(UTC+00:00)

ATLAS CENTAUR R/B - Pass Details

Date: 03 March 2021
Orbit: 475 x 670 km, 64.7° (Epoch: 30 March)

Event Time Altitude Azimuth Distance (km) Brightness Sun altitude
Rises 18:18:47 0° 206° (SSW) 2,521 5.0 -13.6°
Reaches altitude 10° 18:20:55 10° 203° (SSW) 1,640 4.0 -13.9°
Maximum altitude 18:24:29 58° 123° (ESE) 558 1.0 -14.5°
Enters shadow 18:27:02 18° 48° (NE) 1,236 2.7 -15.0°
